ONEWEB-0199, 48234

Orbit data source: Space-Track

ONEWEB-0199, 48234 is a payload satellite owned by One Web (NAA) (UK) in LEO that was launched on Sun, 25 Apr 2021 UTC via a SOYUZ-2-1B launch vehicle from the Vostochny Cosmodrome (VOSTO). Payload-class satellites include a variety of spacecraft equipped with specific instruments for various scientific and technological missions. These include communications satellites like Starlink; space stations such as the ISS; scientific satellites like the Hubble; Earth observation satellites from companies like Planet Labs, Umbra, and HawkEye 360; GPS; miniature CubeSats for education and research; and military/defense satellites.

Loading next visibility...
Identifier
48234, 2021-031AA
Orbit
LEO
Country
Flag of UKUK
Related business
Manufacturer
One Web
Mission
Operational Commercial Communications
Bus & Motor
ARROW, Unknown motor
Mass
148 kg wet, ~140 kg dry
Launch date (UTC)
2021-04-25 (5 years ago)
Launch vehicle
SOYUZ-2-1B
Launch site
Vostochny Cosmodrome (VOSTO)
Object type
Payload
Rocket body
Debris
Shape & HBR
Trap Box + 2 Pan, 6.7 m
Radar Cross Section
3.464 m², Large (>1 m²)

Expand to show TLE details & history
Last TLE update: 4 hours ago

TLE from 4 hours ago
0 ONEWEB-0199
1 48234U 21031AA  26095.26449970  .00000240  00000-0  61361-3 0  9997
2 48234  87.8947 304.2481 0001687  92.0236 268.1087 13.14502051238683
Epoch: 2026-04-05T06:20Z
TLE epoch observation values (Epoch: 2026-04-05T06:20:52.774Z)
Latitude
0.00001°
Longitude
15.45579°
Altitude
1,208.729 km
Speed
7.25 km/s
True Right ascension
20h 16m 59s
True Declination
0° 00' 00"
Sunlit
Object was in daylight at epoch
Visualization orbit readout
Latitude
Unknown
Longitude
Unknown
Altitude
Unknown
Speed
Unknown
Apparent Right ascension
Unknown
Apparent Declination
Unknown
Sunlit
N/A
Visualization observer readout
Local Sidereal Time
16:38:22
Azimuth
Unknown
Elevation
Unknown
Doppler factor
Unknown
Orbital elements
Apogee altitude
1,204.186 km
Perigee altitude
1,201.628 km
Semi-major axis
7,581.044 km
Eccentricity
0.00017
Inclination
87.8947°
RAAN
304.2481°
Arg. of periapsis
92.0236°
True anomaly
268.08938°
Mean anomaly
268.1087°
Eccentric anomaly
268.09904°
Mean motion
3.28814 °/min
Orbital period
109.48 mins
BSTAR
0.00061361
Loading maneuver chart data...
Computing Atmospheric mass density...
Loading historical data...
Loading historical data...
Loading historical data...
Loading historical data...
Loading historical data...
Loading historical data...
Loading historical data...

Documentation

Showing up to 5 results
|